Tracking 27122 objects as of 24-Mar-2023
HD Live streaming from Space Station
objects crossing your sky now

COSMOS 1275 DEB

Track COSMOS 1275 DEB now!
10-day predictions


NORAD ID: 14440
Int'l Code: 1981-053JK
Perigee: 946.5 km
Apogee: 1,122.2 km
Inclination: 82.9 °
Period: 105.7 minutes
Semi major axis: 7405 km
RCS: 0.017 m2 (small)
Launch date: June 4, 1981
Source: Commonwealth of Independent States (former USSR) (CIS)
Launch site: PLESETSK MISSILE AND SPACE COMPLEX (PKMTR)

Note: This is SATELLITE DEBRIS
Your satellite tracking list
Your tracking list is empty




NASA's NSSDC Master Catalog

Two Line Element Set (TLE):
1 14440U 81053JG  23081.72314823  .00001369  00000-0  16685-2 0  9991
2 14440  82.9255 338.0723 0118621  44.7042  10.1916 13.62325320 52442
Source of the keplerian elements: AFSPC